JILIN-01 GAOFEN 3D 32 (52449 NORAD) Tracking and Keplerian Element Data
This shows tracking and keplerian element data for the satellite.
Feedback or suggestion? Click here.
Element | Value |
Catalog | 52449 |
Name | JILIN-01 GAOFEN 3D 32 |
Epoch Orbit | 222 |
Epoch Day | 139.76075273 |
Epoch Year | 2022 |
RAAN | 204.3803 |
Inclination | 97.6809 |
Eccentricity | 0.0013159 |
Argument of Perigee | 224.7489 |
Mean Anonmoly | 280.8319 |
Mean Motion | 15.0996193 |
Decay Rate | 3.742E-05 |
L1 | 1 52449U 22048G 22139.76075273 .00003742 00000+0 23422-3 0 9995 |
L2 | 2 52449 97.6809 204.3803 0013159 224.7489 280.8319 15.09961930 2220 |
Live tracking and technical data element details for JILIN-01 GAOFEN 3D 32 (NORAD 52449). JILIN-01 GAOFEN 3D 32 can be tracked NOW for your location showing map with azimuth and elevation plus other details from your city location.
Track the satellite on the map from your city or location and see movement details for azimuth, elevation, latitude, longitude, range, height, and movement on the map or in text.
IsCatalogInMostPopularTable: catalog: 52449, numindb: -1
Insert: records affected: 1
GetName: 52449 JILIN-01 GAOFEN 3D 32
Hit Count: inserted at: Mon, 23 May 2022 17:00:57 GMT